Regional Weather Roundup
Issued by NWS Charleston, SC

Current Version | Previous Version | Graphics & Text | Print | Product List | Glossary On
Versions: 1 2 3 4 5 6 7 8 9 10 11 12 13 14 15 16 17 18 19 20 21 22 23 24 25 26 27 28 29 30 31 32 33 34 35 36 37 38 39 40 41 42 43 44 45 46 47 48 49 50
343
ASUS42 KCHS 230712
RWRCHS

REGIONAL WEATHER ROUNDUP
NATIONAL WEATHER SERVICE CHARLESTON SC
300 AM EDT MON OCT 23 2017

NOTE: "FAIR" INDICATES FEW OR NO CLOUDS BELOW 12,000 FEET WITH NO
SIGNIFICANT WEATHER AND/OR OBSTRUCTIONS TO VISIBILITY.

NOT ALL STATIONS ARE QUALITY CONTROLLED. USE DATA WITH CAUTION...
ESPECIALLY DEWPOINT OBSERVATIONS.

SCZ027-030-031-034>040-042>050-230800-
...SOUTHEAST SOUTH CAROLINA...

CITY           SKY/WX    TMP DP  RH WIND       PRES   REMARKS
N CHARLESTON   MOCLDY    73  71  93 SE9       30.12F
WATERFRONT PRK NOT AVBL
JOHNS ISLAND   HVY RAIN  73  72  94 S12       30.14S VSB 1/2
PINOPOLIS        N/A     72  70  94 VRB2        N/A
MONCKS CORNER  PTSUNNY   70  68  94 CALM      30.14F
SUMMERVILLE    PTSUNNY   70  70 100 CALM      30.14F
BEAUFORT MCAS  CLOUDY    73  72  96 MISG      30.11F
BEAUFORT ARPT  CLOUDY    72  70  94 SE3       30.11F
HILTON HEAD IS MOCLDY    73  72  94 VRB6      30.12F
WALTERBORO     CLOUDY    70  70 100 SE3       30.14S
ALLENDALE        N/A     72  72 100 E5          N/A

...SOUTHERN MIDLANDS AND PEE DEE...

CITY           SKY/WX    TMP DP  RH WIND       PRES   REMARKS
GEORGETOWN     FAIR      70  70 100 E8        30.17F
KINGSTREE      PTSUNNY   68  68 100 E5        30.16S
ORANGEBURG     CLOUDY    70  68  93 E5        30.13F
BARNWELL         N/A     72  72 100 E7        30.11F
AIKEN          CLOUDY    68  68 100 E7        30.15F
MANNING        RAIN      70  68  94 MISG      30.15S
COLUMBIA       CLOUDY    69  69 100 E6        30.13F
SUMTER         LGT RAIN  68  64  88 E3        30.13S
FLORENCE       CLOUDY    66  64  93 E8        30.17F
MYRTLE BEACH   LGT RAIN  72  70  93 SE10      30.19F
N MYRTLE BEACH CLOUDY    74  69  85 SE10      30.18F

$$

GAZ063-065-086>088-099>101-113>116-118-119-134>141-150-230800-
...SOUTHEAST GEORGIA...

CITY           SKY/WX    TMP DP  RH WIND       PRES   REMARKS
SAVANNAH ARPT  MOCLDY    73  71  93 SE8       30.10F
HUNTER AAF     PTCLDY    74  71  92 SE7       30.07F
FORT STEWART   PTCLDY    71  69  95 E6        30.06F
STATESBORO     CLOUDY    72  72 100 CALM      30.09F
SYLVANIA       CLOUDY    72  72 100 SE6       30.11F
CLAXTON        PTSUNNY   73  72  97 E3        30.08F

...CSRA...CENTRAL AND FAR SOUTHEAST GEORGIA...

CITY           SKY/WX    TMP DP  RH WIND       PRES   REMARKS
THOMSON        RAIN      68  68  98 CALM      30.14F FOG
AUGUSTA-BUSH   CLOUDY    72  70  93 E5        30.09F
AUGUSTA-DANIEL CLOUDY    71  69  93 E8        30.11F
SWAINSBORO     CLOUDY    72  72 100 SE8       30.10S
VIDALIA        CLOUDY    72  72 100 SE5       30.08F
EASTMAN        CLOUDY    74  74 100 SE5       30.09F
HAZLEHURST     FAIR      75  71  88 SE7       30.06S
ALMA           CLOUDY    75  72  90 SE7       30.06F
WAYCROSS       CLOUDY    76  73  90 S7        30.07S
JESUP          NOT AVBL
BAXLEY         CLOUDY    72  72 100 SE5       30.07S
BRUNSWICK      CLOUDY    75  70  83 SE8       30.09F
SAINT SIMONS   CLOUDY    77  74  90 SE10      30.08F

$$

SCZ027-028-034-036>038-045-046-048>050-GAZ119-141-230800-
...LAKE AND SUPPLEMENTAL COASTAL OBSERVATIONS...

STATION/POSITION TIME  TEMP    WIND        PRES    WAVE   SWELL
                       AIR SEA DIR/SP/G            HT/PER HT/PER/DIR
                 (UTC) (F)     (DEG/KT/KT) (MB)    (FT/S) (FT/S/D)
WINYAH BAY       0545   73     110/ 11     1022.0
LAKE MURRAY      0620   68      90/  7/  9 1020.3F
ACE BASIN NERRS  0545   71        CALM     1021.0
FORT PULASKI     0648   75 74  140/  7/ 11 1019.7F
SAPELO ISLAND    NOT AVBL

$$

ANZ835-935-AMZ111-154-330-350-352-354-370-450-454-472-230800-
...C-MAN AND BUOY OBSERVATIONS...

STATION/POSITION TIME  TEMP    WIND        PRES    WAVE   SWELL
                       AIR SEA DIR/SP/G            HT/PER HT/PER/DIR
                 (UTC) (F)     (DEG/KT/KT) (MB)    (FT/S) (FT/S/D)
BUOY 41004       0650   80 79  140/ 19/ 23 1020.4F   6/ 6
BUOY 41008       0650   77 77  140/ 16/ 21 1018.7F   4/ 6   2/ 90/ 8
FOLLY BEACH CMAN 0600   74     120/  9/ 10 1021.4F
CAPERS NEARSHORE 0608   69 73  180/ 12/ 21 1020.4F
FRIPP NEARSHORE  0608   73     160/ 14/ 19   N/A


STATION/POSITION TIME  TEMP    WIND        PRES    WAVE   SWELL
                       AIR SEA DIR/SP/G            HT/PER HT/PER/DIR
                 (UTC) (F)     (DEG/KT/KT) (MB)    (FT/S) (FT/S/D)
5E ST. MARYS GA  0700      76                N/A     4/ 6
FRYING PAN BUOY  0650   77 77  120/ 17/ 23 1021.8F   5/ 6   2/140/ 9
BUOY 41025       0650   77 81  130/ 12/ 16 1024.0F   4/ 8   2/100/ 8
CAPE LOOKOUT NC  0600   75     130/ 10/ 11 1023.9F
BUOY 41002       0550   76 80  110/ 12/ 14 1023.8    4/ 9   3/100/ 9
BUOY 41010       NOT AVBL
ST AUGUSTINE FL  0700   79 78  150/ 13/ 14 1018.8F


$$




USA.gov is the U.S. government's official web portal to all federal, state and local government web resources and services.